Terminal Aerodrome Forecast
Issued by NWS Greer, SC

Home | Current Version | Previous Version | Text Only | Print | Product List | Glossary On
Versions: 1 2 3 4 5 6 7 8 9 10 11 12 13 14 15 16 17 18 19 20 21 22 23 24 25 26 27 28 29 30 31 32 33 34 35 36 37 38 39 40 41 42 43 44 45 46 47 48
000
FTUS42 KGSP 010900 AAB
TAFCLT
TAF AMD
KCLT 010916Z 0109/0206 03012G20KT 4SM -SHRA BR FEW007 OVC017
      TEMPO 0109/0112 02009KT P6SM -SHRA OVC009
     FM011600 11007KT P6SM -SHRA OVC023 PROB30 0119/0124 4SM TSRA
      OVC013CB
     FM020300 08005KT P6SM VCSH OVC008=

USA.gov is the U.S. government's official web portal to all federal, state and local government web resources and services.